EW4189 Weather Reports


time (UTC)temp
C
wind
direction
speed
KPH
gust
KPH
rain 1hr
cm
rain 24hr
cm
rain mn
cm
humidity
%
barometer
mb
20260503055041 8 84 1.6 4.8 0.00 0.00 0.00 80 1015.6
20260503054550 7 0 1.6 6.4 0.00 0.00 0.00 78 1015.6
20260503054043 7 231 3.2 6.4 0.00 0.00 0.00 83 1015.7
20260503053543 7 229 1.6 6.4 0.00 0.00 0.00 82 1015.7
20260503053051 7 0 0.0 4.8 0.00 0.00 0.00 78 1015.8
20260503052542 7 0 0.0 9.7 0.00 0.00 0.00 75 1015.7
20260503052042 7 90 1.6 9.7 0.00 0.00 0.00 81 1015.7
20260503051552 7 82 4.8 11.3 0.00 0.00 0.00 79 1015.8
20260503051044 8 76 4.8 11.3 0.00 0.00 0.00 74 1015.6
20260503050544 11 80 3.2 9.7 0.00 0.00 0.00 63 1015.6
20260503050050 12 88 3.2 11.3 0.00 0.00 0.00 56 1015.6
20260503045542 12 239 3.2 11.3 0.00 0.00 0.00 50 1015.6
20260503045044 10 17 3.2 8.0 0.00 0.00 0.00 55 1015.6
20260503044611 9 148 1.6 8.0 0.00 0.00 0.00 73 1015.6
20260503044042 9 182 4.8 8.0 0.00 0.00 0.00 78 1015.6
20260503043542 9 198 3.2 6.4 0.00 0.00 0.00 75 1015.5
20260503043053 9 173 3.2 6.4 0.00 0.00 0.00 74 1015.5
20260503042544 10 0 1.6 9.7 0.00 0.00 0.00 68 1015.5
20260503042045 10 115 3.2 11.3 0.00 0.00 0.00 70 1015.4
20260503041608 9 114 8.0 11.3 0.00 0.00 0.00 73 1015.3
20260503041041 9 121 6.4 12.9 0.00 0.00 0.00 74 1015.2
20260503040541 9 128 6.4 12.9 0.00 0.00 0.00 72 1015.2
20260503040053 11 116 8.0 12.9 0.00 0.00 0.00 66 1015.0
20260503035543 13 184 4.8 17.7 0.00 0.00 0.00 48 1014.9
20260503035044 16 59 8.0 19.3 0.00 0.00 0.00 42 1014.9
20260503034550 16 304 12.9 19.3 0.00 0.00 0.00 43 1014.7
20260503034043 15 308 11.3 14.5 0.00 0.00 0.00 53 1014.7
20260503033542 12 304 4.8 11.3 0.00 0.00 0.00 57 1014.7
20260503033109 11 0 0.0 4.8 0.00 0.00 0.00 74 1014.6
20260503032546 11 242 3.2 4.8 0.00 0.00 0.00 70 1014.5
20260503032042 12 275 1.6 4.8 0.00 0.00 0.00 68 1014.4
20260503031549 12 275 1.6 4.8 0.00 0.00 0.00 66 1014.4
20260503031042 13 241 3.2 8.0 0.00 0.00 0.00 66 1014.3
20260503030541 14 201 1.6 8.0 0.00 0.00 0.00 63 1014.3
20260503030054 14 204 3.2 8.0 0.00 0.00 0.00 52 1014.2
20260503025541 14 212 3.2 8.0 0.00 0.00 0.00 54 1014.1
20260503025042 15 134 0.0 3.2 0.00 0.00 0.00 52 1013.9
20260503024559 16 134 1.6 3.2 0.00 0.00 0.00 49 1013.8
20260503024041 17 134 0.0 3.2 0.00 0.00 0.00 42 1013.8
20260503023543 18 134 1.6 3.2 0.00 0.00 0.00 41 1013.8
20260503023053 18 134 0.0 3.2 0.00 0.00 0.00 42 1013.8
20260503022542 18 0 0.0 3.2 0.00 0.00 0.00 42 1013.7
20260503022044 19 134 1.6 3.2 0.00 0.00 0.00 42 1013.7
20260503021553 20 134 1.6 3.2 0.00 0.00 0.00 39 1013.8
20260503021042 20 133 1.6 3.2 0.00 0.00 0.00 44 1013.7
20260503020542 20 134 1.6 3.2 0.00 0.00 0.00 44 1013.8
20260503020056 20 134 0.0 3.2 0.00 0.00 0.00 49 1013.7
20260503015546 20 134 0.0 4.8 0.00 0.00 0.00 45 1013.8
20260503015042 20 134 1.6 4.8 0.00 0.00 0.00 51 1013.8
20260503014552 20 139 1.6 4.8 0.00 0.00 0.00 49 1013.8
20260503014041 20 139 1.6 4.8 0.00 0.00 0.00 52 1013.8
20260503013543 21 139 1.6 6.4 0.00 0.00 0.00 47 1013.9
20260503013057 20 139 3.2 6.4 0.00 0.00 0.00 51 1013.8
20260503012542 20 139 3.2 9.7 0.00 0.00 0.00 48 1013.9
20260503012043 20 144 3.2 9.7 0.00 0.00 0.00 49 1013.8
20260503011602 21 152 3.2 8.0 0.00 0.00 0.00 51 1013.9
20260503011044 20 165 3.2 9.7 0.00 0.00 0.00 42 1013.8
20260503010543 20 159 3.2 9.7 0.00 0.00 0.00 50 1013.8
20260503005542 21 143 6.4 14.5 0.00 0.00 0.00 39 1013.9
20260503005042 22 145 6.4 14.5 0.00 0.00 0.00 37 1014.0
20260503004552 21 152 3.2 8.0 0.00 0.00 0.00 46 1014.1
20260503004041 21 150 3.2 6.4 0.00 0.00 0.00 47 1014.1
20260503003541 20 150 3.2 6.4 0.00 0.00 0.00 48 1014.1
20260503003055 20 141 3.2 6.4 0.00 0.00 0.00 48 1014.0
20260503002542 20 141 3.2 8.0 0.00 0.00 0.00 46 1014.0
20260503002041 20 136 4.8 8.0 0.00 0.00 0.00 45 1013.9
20260503001613 21 128 3.2 9.7 0.00 0.00 0.00 33 1014.1
20260503001041 21 136 3.2 11.3 0.00 0.00 0.00 31 1014.0
20260503000542 21 139 4.8 11.3 0.00 0.00 0.00 35 1014.1
20260503000113 21 148 4.8 12.9 0.00 0.00 0.00 42 1014.0
20260502235542 21 148 4.8 14.5 0.00 0.00 0.00 32 1014.0
20260502235042 22 157 9.7 14.5 0.00 0.00 0.00 35 1014.1
20260502234605 22 152 3.2 12.9 0.00 0.00 0.00 31 1014.1
20260502234042 22 136 8.0 12.9 0.00 0.00 0.00 28 1014.2
20260502233542 22 147 8.0 16.1 0.00 0.00 0.00 32 1014.1
20260502233050 22 136 9.7 16.1 0.00 0.00 0.00 31 1014.2
20260502232541 23 135 6.4 16.1 0.00 0.00 0.00 29 1014.2
20260502232040 22 110 9.7 16.1 0.00 0.00 0.00 23 1014.2
20260502231557 23 136 6.4 16.1 0.00 0.00 0.00 28 1014.2
20260502231043 23 86 6.4 14.5 0.00 0.00 0.00 16 1014.2
20260502230544 23 91 4.8 17.7 0.00 0.00 0.00 27 1014.3
20260502230049 23 116 11.3 17.7 0.00 0.00 0.00 19 1014.4
20260502225542 23 141 8.0 14.5 0.00 0.00 0.00 30 1014.4
20260502225042 23 98 6.4 14.5 0.00 0.00 0.00 27 1014.5
20260502224554 23 140 8.0 14.5 0.00 0.00 0.00 29 1014.6
20260502224042 23 116 6.4 14.5 0.00 0.00 0.00 28 1014.7
20260502223542 22 71 4.8 16.1 0.00 0.00 0.00 23 1014.9
20260502223052 23 152 6.4 22.5 0.00 0.00 0.00 26 1014.9
20260502222542 23 121 8.0 22.5 0.00 0.00 0.00 19 1014.9
20260502222045 23 136 12.9 17.7 0.00 0.00 0.00 31 1015.0
20260502221552 23 109 9.7 17.7 0.00 0.00 0.00 28 1015.0
20260502221043 23 119 11.3 19.3 0.00 0.00 0.00 30 1015.1
20260502220543 23 111 9.7 19.3 0.00 0.00 0.00 25 1015.1
20260502220141 23 115 12.9 19.3 0.00 0.00 0.00 29 1015.2
20260502215543 23 101 9.7 20.9 0.00 0.00 0.00 30 1015.2
20260502215043 23 111 11.3 20.9 0.00 0.00 0.00 28 1015.1
20260502214557 23 67 12.9 20.9 0.00 0.00 0.00 28 1015.2
20260502214042 22 111 12.9 20.9 0.00 0.00 0.00 30 1015.2
20260502213540 23 144 12.9 20.9 0.00 0.00 0.00 29 1015.2
20260502213048 23 107 12.9 20.9 0.00 0.00 0.00 30 1015.3
20260502212544 22 119 11.3 19.3 0.00 0.00 0.00 34 1015.4
20260502212042 22 132 12.9 19.3 0.00 0.00 0.00 33 1015.4
20260502211550 22 111 11.3 24.1 0.00 0.00 0.00 32 1015.5
20260502211045 23 94 12.9 24.1 0.00 0.00 0.00 25 1015.5
20260502210541 22 94 9.7 19.3 0.00 0.00 0.00 35 1015.5
20260502210100 22 74 9.7 25.7 0.00 0.00 0.00 34 1015.5
20260502205543 22 116 16.1 25.7 0.00 0.00 0.00 33 1015.6
20260502205042 22 111 12.9 20.9 0.00 0.00 0.00 39 1015.7
20260502204559 22 139 14.5 22.5 0.00 0.00 0.00 34 1015.8
20260502204042 22 123 12.9 22.5 0.00 0.00 0.00 36 1015.8
20260502203541 22 135 14.5 24.1 0.00 0.00 0.00 39 1015.9
20260502203101 22 64 14.5 25.7 0.00 0.00 0.00 33 1015.8
20260502202545 22 141 14.5 25.7 0.00 0.00 0.00 36 1015.9
20260502202044 21 117 16.1 24.1 0.00 0.00 0.00 38 1015.9
20260502201553 21 145 16.1 24.1 0.00 0.00 0.00 35 1016.0
20260502201043 21 126 17.7 24.1 0.00 0.00 0.00 35 1016.0
20260502200543 22 92 14.5 24.1 0.00 0.00 0.00 40 1016.0
20260502200053 21 109 12.9 24.1 0.00 0.00 0.00 42 1016.0
20260502195541 21 122 11.3 22.5 0.00 0.00 0.00 44 1016.0
20260502195041 21 103 9.7 22.5 0.00 0.00 0.00 32 1016.1
20260502194554 21 107 12.9 22.5 0.00 0.00 0.00 36 1016.2
20260502194042 21 127 9.7 14.5 0.00 0.00 0.00 30 1016.3
20260502193542 21 209 9.7 16.1 0.00 0.00 0.00 37 1016.4
20260502193050 21 178 9.7 16.1 0.00 0.00 0.00 31 1016.5
20260502192541 21 109 3.2 19.3 0.00 0.00 0.00 38 1016.6
20260502192041 21 194 9.7 19.3 0.00 0.00 0.00 29 1016.6
20260502191608 21 150 9.7 19.3 0.00 0.00 0.00 37 1016.6
20260502191045 21 111 12.9 22.5 0.00 0.00 0.00 40 1016.7
20260502190541 21 123 14.5 22.5 0.00 0.00 0.00 36 1016.8
20260502190106 21 89 11.3 17.7 0.00 0.00 0.00 33 1016.7
20260502185541 20 128 6.4 16.1 0.00 0.00 0.00 35 1016.9
20260502185041 20 109 6.4 17.7 0.00 0.00 0.00 38 1017.0
20260502184553 20 138 8.0 19.3 0.00 0.00 0.00 37 1016.9
20260502184043 20 157 14.5 19.3 0.00 0.00 0.00 40 1017.0
20260502183544 20 111 6.4 14.5 0.00 0.00 0.00 40 1017.0
20260502183059 19 136 6.4 17.7 0.00 0.00 0.00 47 1017.1
20260502182542 19 139 9.7 17.7 0.00 0.00 0.00 35 1017.0
20260502182043 20 120 8.0 17.7 0.00 0.00 0.00 47 1017.0
20260502181551 19 101 8.0 16.1 0.00 0.00 0.00 41 1017.1
20260502181046 19 127 4.8 14.5 0.00 0.00 0.00 44 1017.1
20260502180543 18 123 8.0 17.7 0.00 0.00 0.00 43 1017.1
20260502180108 19 126 9.7 17.7 0.00 0.00 0.00 47 1017.2
20260502164041 13 199 1.6 6.4 0.00 0.00 0.00 62 1017.6
20260502163541 13 213 1.6 6.4 0.00 0.00 0.00 57 1017.7
20260502163106 13 178 1.6 8.0 0.00 0.00 0.00 61 1017.8
20260502162541 12 111 1.6 8.0 0.00 0.00 0.00 60 1017.7
20260502162045 12 131 1.6 6.4 0.00 0.00 0.00 67 1017.7
20260502161549 12 132 3.2 8.0 0.00 0.00 0.00 64 1017.7
20260502161046 12 0 1.6 8.0 0.00 0.00 0.00 65 1017.8
20260502160544 12 150 0.0 4.8 0.00 0.00 0.00 69 1017.7
20260502152045 8 211 0.0 4.8 0.00 0.00 0.00 78 1018.0
20260502151556 8 213 0.0 4.8 0.00 0.00 0.00 79 1018.0
20260502151046 8 0 0.0 4.8 0.00 0.00 0.00 78 1017.9
20260502150540 7 194 1.6 4.8 0.00 0.00 0.00 79 1017.9
20260502130544 1 221 1.6 4.8 0.00 0.00 0.00 86 1017.6
20260502130105 3 0 1.6 4.8 0.00 0.00 0.00 97 1017.6
20260502123544 1 46 0.0 3.2 0.00 0.00 0.00 96 1017.7
20260502123058 1 53 0.0 3.2 0.00 0.00 0.00 92 1017.7
20260502122544 2 53 0.0 3.2 0.00 0.00 0.00 93 1017.7
20260502122041 2 53 1.6 3.2 0.00 0.00 0.00 94 1017.6
20260502121551 2 53 0.0 3.2 0.00 0.00 0.00 94 1017.7
20260502121043 2 0 0.0 4.8 0.00 0.00 0.00 96 1017.6
20260502120542 2 53 0.0 4.8 0.00 0.00 0.00 96 1017.5
20260502115547 2 0 0.0 1.6 0.00 0.00 0.00 97 1017.6
20260502115047 2 0 0.0 1.6 0.00 0.00 0.00 97 1017.6
20260502114551 3 0 0.0 3.2 0.00 0.00 0.00 97 1017.5
20260502114046 3 0 0.0 3.2 0.00 0.00 0.00 97 1017.6
20260502113547 2 100 0.0 3.2 0.00 0.00 0.00 97 1017.6
20260502113054 2 0 0.0 1.6 0.00 0.00 0.00 96 1017.6
20260502112543 2 0 0.0 3.2 0.00 0.00 0.00 95 1017.6
20260502112043 2 0 0.0 4.8 0.00 0.00 0.00 94 1017.6
20260502111551 2 0 0.0 4.8 0.00 0.00 0.00 93 1017.5
20260502111042 3 0 0.0 1.6 0.00 0.00 0.00 94 1017.5
20260502110547 3 290 0.0 1.6 0.00 0.00 0.00 88 1017.5
20260502110053 3 0 0.0 1.6 0.00 0.00 0.00 92 1017.5
20260502105541 3 0 0.0 1.6 0.00 0.00 0.00 96 1017.5
20260502105045 3 0 0.0 1.6 0.00 0.00 0.00 97 1017.6
20260502104550 2 0 0.0 6.4 0.00 0.00 0.00 97 1017.6
20260502104041 2 0 1.6 6.4 0.00 0.00 0.00 96 1017.6
20260502103544 2 296 1.6 4.8 0.00 0.00 0.00 95 1017.6
20260502103056 2 0 0.0 4.8 0.00 0.00 0.00 90 1017.5
20260502102544 2 96 1.6 4.8 0.00 0.00 0.00 91 1017.5
20260502102044 3 0 0.0 3.2 0.00 0.00 0.00 91 1017.6
20260502101554 3 0 1.6 4.8 0.00 0.00 0.00 92 1017.4
20260502101043 3 51 1.6 4.8 0.00 0.00 0.00 93 1017.5
20260502100540 3 51 3.2 6.4 0.00 0.00 0.00 93 1017.5
20260502100200 3 51 3.2 6.4 0.00 0.00 0.00 93 1017.4
20260502091040 3 102 0.0 3.2 0.00 0.00 0.00 94 1017.5
20260502090543 3 0 0.0 3.2 0.00 0.00 0.00 92 1017.5
20260502071046 8 0 0.0 3.2 0.00 0.00 0.00 71 1017.7
20260502070543 9 236 0.0 3.2 0.00 0.00 0.00 68 1017.7